Tracking 29892 objects as of 21-Nov-2024
HD Live streaming from Space Station
objects crossing your sky now

STARLINK-30383

Track STARLINK-30383 now!
10-day predictions
STARLINK-30383 is classified as:


NORAD ID: 57773
Int'l Code: 2023-134C
Perigee: 565.2 km
Apogee: 567.3 km
Inclination: 43.0 °
Period: 95.8 minutes
Semi major axis: 6937 km
RCS: Unknown
Launch date: September 4, 2023
Source: United States (US)
Launch site: AIR FORCE EASTERN TEST RANGE (AFETR)
Your satellite tracking list
Your tracking list is empty




NASA's NSSDC Master Catalog

Two Line Element Set (TLE):
1 57773U 23134C   24326.14324974 -.00001382  00000-0 -87273-4 0  9990
2 57773  43.0045 250.9656 0001526 264.8120  95.2549 15.02525941 68234
Source of the keplerian elements: AFSPC